Powrót do katalogu

SL-16 DEB

AktywnyLEO
NORAD 19125·DEBRIS·🇷🇺 Russia

Wystrzelony May 15, 1988 z Baikonur Cosmodrome

Loading…

Następne Przeloty (najbliższe 24 godziny)

TLE

ŚwieżeSource: Space-Track

Epoka: Sep 14, 2026, 10:12 UTC

1 19125U 88039C   26257.42552229  .00000036  00000-0  67704-4 0  9996
2 19125  71.0326 168.3505 0177408 170.5510 189.9008 13.79702686928488

Śledź SL-16 DEB w czasie rzeczywistym z AllMySat

Download on the App Store